Home > Weather > Stockerau > Past weeks

Flag for Austria Past Weather in Stockerau, Lower Austria, Austria — Yesterday and Last 2 Weeks

Now
73 °F

Passing clouds.


Feels Like: 77 °F
Forecast: 53 / 77 °F
Wind: 2 mph from North

Location: Tulln Airport

Current Time: May 26, 2016 at 6:35:11 PM

Latest Report: May 26, 2016 at 5:50 PM


Visibility: 15 mi

Pressure: 29.98 "Hg

Humidity: 53%

Dew Point: 55 °F

Location of StockerauLocation

Past Weather in Stockerau — Graph

°F

Stockerau Temperature Yesterday

Maximum temperature yesterday: 72 °F (at 4:50 PM)
Minimum temperature yesterday: 54 °F (at 5:50 AM)
Average temperature yesterday: 60 °F

High & Low Weather Summary for the Past Weeks

 TemperatureHumidityPressure
High81 °F (May 22, 12:50 PM)100% (May 13, 10:50 AM)30.15 "Hg (May 13, 10:50 AM)
Low43 °F (May 16, 5:50 AM)34% (May 21, 4:50 PM)29.36 "Hg (May 13, 5:50 AM)
Average60 °F69%29.87 "Hg
* Reported May 11 4:50 PM — May 26 4:50 PM, Stockerau, Weather by CustomWeather, © 2016

Note: Actual official high and low records may vary slightly from our data, if they occured in-between our weather recording intervals... More about our weather records

Advertising

Stockerau Weather History for the Previous 24 Hours

Scroll right to see more
 ConditionsComfort  
Time TempWeatherWind HumidityBarometerVisibility
4:50 PM
Thu, May 26
73 °FPassing clouds.5 mph57%29.98 "Hg16 mi
3:50 PM75 °FPassing clouds.5 mph50%30.01 "Hg16 mi
2:50 PM75 °FScattered clouds.5 mph54%30.01 "Hg16 mi
1:50 PM73 °FPassing clouds.6 mph57%30.01 "Hg16 mi
12:50 PM72 °FPassing clouds.6 mph61%30.04 "Hg12 mi
11:50 AM70 °FScattered clouds.7 mph64%30.04 "Hg12 mi
10:50 AM66 °FBroken clouds.8 mph73%30.04 "Hg7 mi
9:50 AM64 °FBroken clouds.6 mph78%30.04 "Hg7 mi
8:50 AM61 °FPartly sunny.5 mph83%30.04 "Hg4 mi
7:50 AM59 °FPartly sunny.5 mph82%30.04 "Hg4 mi
6:50 AM55 °FPartly sunny.3 mph94%30.01 "Hg4 mi
5:50 AM52 °FPassing clouds.3 mph100%30.01 "Hg4 mi
10:50 PM
Wed, May 25
57 °FPassing clouds.6 mph94%29.95 "Hg9 mi
8:50 PM63 °FPassing clouds.5 mph77%29.92 "Hg12 mi
7:50 PM64 °FScattered clouds.5 mph73%29.92 "Hg16 mi
6:50 PM68 °FPassing clouds.7 mph64%29.89 "Hg16 mi
Weather by CustomWeather, © 2016

See weather overviewHow to use our weather pages